This is the latest recevied weather packets stored in our database for station/object KD8OZS. If no packets are shown the sender has not sent any weather packets the latest 10 day(s).
| Time | Temp. | Humidity | Pressure | Rain* | Wind** | Luminosity | Snow |
|---|---|---|---|---|---|---|---|
| 1787838082 | 22.22° C | 87% | 1007.3 hPa | 0 mm | - | 274 W/m² | - |
| 1787837781 | 22.22° C | 86% | 1007.3 hPa | 0 mm | - | 244 W/m² | - |
| 1787837476 | 22.22° C | 86% | 1007.2 hPa | 0 mm | - | 432 W/m² | - |
| 1787837171 | 22.22° C | 86% | 1007.2 hPa | 0 mm | - | 350 W/m² | - |
| 1787836870 | 21.67° C | 87% | 1007.2 hPa | 0 mm | - | 246 W/m² | - |
| 1787836566 | 22.78° C | 86% | 1007.4 hPa | 0 mm | - | 161 W/m² | - |
| 1787836265 | 23.33° C | 85% | 1007.3 hPa | 0 mm | - | 299 W/m² | - |
| 1787835961 | 21.67° C | 87% | 1007.1 hPa | 0 mm | - | 294 W/m² | - |
| 1787835656 | 20.56° C | 88% | 1007.1 hPa | 0 mm | - | 256 W/m² | - |
| 1787835355 | 20.56° C | 89% | 1007.1 hPa | 0 mm | - | 234 W/m² | - |
| 1787835051 | 20° C | 92% | 1007.1 hPa | 0 mm | - | 157 W/m² | - |
| 1787834750 | 19.44° C | 95% | 1007.1 hPa | 0 mm | - | 166 W/m² | - |
| 1787834445 | 18.89° C | 97% | 1006.8 hPa | 0 mm | - | 163 W/m² | - |
| 1787834141 | 18.33° C | 98% | 1007.4 hPa | 0 mm | - | 144 W/m² | - |
| 1787833836 | 17.78° C | 98% | 1007 hPa | 0 mm | - | 121 W/m² | - |
| 1787833531 | 17.78° C | 98% | 1007 hPa | 0 mm | - | 130 W/m² | - |
| 1787833227 | 17.22° C | 98% | 1007 hPa | 0 mm | - | 105 W/m² | - |
| 1787832922 | 17.22° C | 99% | 1007.1 hPa | 0 mm | - | 67 W/m² | - |
| 1787832619 | 16.67° C | 99% | 1007 hPa | 0 mm | - | 63 W/m² | - |
| 1787832317 | 16.67° C | 99% | 1007 hPa | 0 mm | - | 58 W/m² | - |
| 1787832017 | 16.67° C | 99% | 1006.9 hPa | 0 mm | - | 56 W/m² | - |
| 1787831710 | 16.67° C | 99% | 1006.9 hPa | 0 mm | - | 47 W/m² | - |
| 1787831409 | 16.11° C | 99% | 1006.8 hPa | 0 mm | - | 35 W/m² | - |
| 1787831108 | 16.11° C | 99% | 1006.7 hPa | 0 mm | - | 38 W/m² | - |
| 1787830805 | 16.11° C | 99% | 1006.5 hPa | 0 mm | - | 35 W/m² | - |
* Rain latest hour (hover to see other rain measurements)
** Current wind speed in m/s (hover to see current wind gust speed)